This is the latest recevied weather packets stored in our database for station/object N5GMJ. If no packets are shown the sender has not sent any weather packets the latest 10 day(s).
| Time | Temp. | Humidity | Pressure | Rain* | Wind** | Luminosity | Snow |
|---|---|---|---|---|---|---|---|
| 1777224934 | 24.44° C | 86% | 1009.4 hPa | 0 mm | - | - | - |
| 1777224632 | 24.44° C | 88% | 1009.5 hPa | 0 mm | - | - | - |
| 1777224331 | 23.89° C | 88% | 1009.5 hPa | 0 mm | - | - | - |
| 1777224027 | 23.89° C | 89% | 1009.8 hPa | 0 mm | - | - | - |
| 1777223725 | 23.89° C | 88% | 1009.7 hPa | 0 mm | - | - | - |
| 1777223421 | 23.89° C | 89% | 1009.5 hPa | 0 mm | - | - | - |
| 1777223119 | 23.89° C | 89% | 1009.5 hPa | 0 mm | - | - | - |
| 1777222815 | 24.44° C | 89% | 1009.6 hPa | 0 mm | - | - | - |
| 1777222514 | 23.89° C | 89% | 1009.4 hPa | 0 mm | - | - | - |
| 1777222210 | 23.33° C | 90% | 1009.7 hPa | 0 mm | - | - | - |
| 1777221909 | 23.89° C | 90% | 1009.8 hPa | 0 mm | - | - | - |
| 1777221603 | 24.44° C | 89% | 1009.8 hPa | 0 mm | - | - | - |
| 1777221301 | 23.89° C | 89% | 1009.7 hPa | 0 mm | - | - | - |
| 1777220997 | 23.89° C | 88% | 1009.8 hPa | 0 mm | - | - | - |
| 1777220692 | 23.89° C | 89% | 1009.7 hPa | 0 mm | - | - | - |
| 1777220389 | 23.89° C | 89% | 1009.7 hPa | 0 mm | - | - | - |
| 1777220088 | 23.33° C | 90% | 1010 hPa | 0 mm | - | - | - |
| 1777219786 | 23.33° C | 91% | 1009.9 hPa | 0 mm | - | - | - |
| 1777219484 | 23.33° C | 92% | 1010 hPa | 0 mm | - | - | - |
| 1777219179 | 22.78° C | 92% | 1009.9 hPa | 0 mm | - | - | - |
| 1777218875 | 22.78° C | 93% | 1010 hPa | 0 mm | - | - | - |
| 1777218571 | 22.78° C | 93% | 1009.8 hPa | 0 mm | - | - | - |
| 1777218271 | 22.78° C | 93% | 1010 hPa | 0 mm | - | - | - |
| 1777217969 | 22.78° C | 93% | 1010.2 hPa | 0 mm | - | - | - |
| 1777217664 | 22.78° C | 93% | 1010 hPa | 0 mm | - | - | - |
* Rain latest hour (hover to see other rain measurements)
** Current wind speed in m/s (hover to see current wind gust speed)